CW8248 Weather Reports


Display with metric or nautical units.
time (UTC)temp
F
wind
direction
speed
MPH
gust
MPH
rain 1hr
in
rain 24hr
in
rain mn
in
humidity
%
barometer
mb
20260901034006 68 60 1.0 4.0 0.00 0.00 0.00 33 1006.9
20260901033506 68 319 0.0 2.0 0.00 0.00 0.00 33 1006.8
20260901033007 68 319 0.0 2.0 0.00 0.00 0.00 33 1006.7
20260901032507 68 319 0.0 1.0 0.00 0.00 0.00 34 1006.7
20260901032007 68 319 0.0 2.0 0.00 0.00 0.00 33 1006.7
20260901031506 69 319 0.0 2.0 0.00 0.00 0.00 33 1006.6
20260901031005 69 319 0.0 2.0 0.00 0.00 0.00 33 1006.5
20260901030506 69 319 0.0 2.0 0.00 0.00 0.00 32 1006.6
20260901030006 69 319 0.0 3.0 0.00 0.00 0.00 32 1006.5
20260901025509 70 319 1.0 3.0 0.00 0.00 0.00 30 1006.5
20260901025006 70 314 0.0 2.0 0.00 0.00 0.00 32 1006.3
20260901024505 70 314 0.0 2.0 0.00 0.00 0.00 32 1006.3
20260901024005 71 314 0.0 4.0 0.00 0.00 0.00 32 1006.2
20260901023510 71 314 1.0 4.0 0.00 0.00 0.00 31 1006.2
20260901023023 71 299 0.0 1.0 0.00 0.00 0.00 30 1006.1
20260901022504 72 299 0.0 2.0 0.00 0.00 0.00 31 1006.0
20260901022004 73 299 1.0 2.0 0.00 0.00 0.00 29 1006.0
20260901021513 73 200 0.0 1.0 0.00 0.00 0.00 30 1006.0
20260901021003 74 200 0.0 1.0 0.00 0.00 0.00 29 1006.0
20260901020504 74 200 0.0 1.0 0.00 0.00 0.00 28 1006.0
20260901020004 75 200 0.0 1.0 0.00 0.00 0.00 27 1005.9
20260901015504 76 200 0.0 1.0 0.00 0.00 0.00 25 1006.0
20260901015003 76 200 0.0 0.0 0.00 0.00 0.00 23 1006.0
20260901014502 77 200 0.0 1.0 0.00 0.00 0.00 22 1006.1
20260901014004 78 200 0.0 1.0 0.00 0.00 0.00 21 1006.0
20260901013504 78 196 0.0 0.0 0.00 0.00 0.00 23 1006.1
20260901013002 79 196 0.0 1.0 0.00 0.00 0.00 22 1006.1
20260901012501 80 196 0.0 3.0 0.00 0.00 0.00 24 1006.2
20260901012003 81 196 1.0 3.0 0.00 0.00 0.00 18 1006.2
20260901011500 81 177 0.0 2.0 0.00 0.00 0.00 18 1006.2
20260901011100 82 177 0.0 2.0 0.00 0.00 0.00 20 1006.2
20260901010600 83 177 0.0 3.0 0.00 0.00 0.00 15 1006.2
20260901010105 83 177 1.0 4.0 0.00 0.00 0.00 14 1006.2
20260901005600 84 177 0.0 4.0 0.00 0.00 0.00 15 1006.3
20260901005059 84 177 1.0 3.0 0.00 0.00 0.00 15 1006.3
20260901004558 84 177 1.0 4.0 0.00 0.00 0.00 14 1006.4
20260901004057 85 177 1.0 4.0 0.00 0.00 0.00 13 1006.4
20260901003557 86 175 2.0 5.0 0.00 0.00 0.00 12 1006.5
20260901003057 87 182 3.0 5.0 0.00 0.00 0.00 12 1006.6
20260901002556 88 176 2.0 6.0 0.00 0.00 0.00 12 1006.5
20260901002059 90 186 5.0 6.0 0.00 0.00 0.00 10 1006.6
20260901001555 90 191 4.0 6.0 0.00 0.00 0.00 10 1006.7
20260901001055 89 204 3.0 8.0 0.00 0.00 0.00 12 1006.7
20260901000553 89 165 4.0 7.0 0.00 0.00 0.00 9 1006.7
20260901000059 91 210 3.0 7.0 0.00 0.00 0.00 10 1006.8
20260831235552 90 191 3.0 6.0 0.00 0.00 0.00 9 1006.9
20260831235052 89 163 4.0 7.0 0.00 0.00 0.00 9 1007.0
20260831234551 90 170 2.0 7.0 0.00 0.00 0.00 9 1007.0
20260831234053 91 177 5.0 8.0 0.00 0.00 0.00 10 1007.1
20260831233549 93 171 5.0 8.0 0.00 0.00 0.00 9 1007.1
20260831233049 93 207 5.0 8.0 0.00 0.00 0.00 11 1007.1
20260831232551 93 204 3.0 8.0 0.00 0.00 0.00 10 1007.2
20260831232048 91 159 5.0 8.0 0.00 0.00 0.00 11 1007.3
20260831231549 92 186 5.0 10.0 0.00 0.00 0.00 10 1007.3
20260831231047 90 223 5.0 10.0 0.00 0.00 0.00 10 1007.5
20260831230546 92 161 5.0 10.0 0.00 0.00 0.00 10 1007.5
20260831230046 93 200 6.0 10.0 0.00 0.00 0.00 10 1007.6
20260831225544 94 162 5.0 8.0 0.00 0.00 0.00 9 1007.7
20260831225044 92 181 5.0 9.0 0.00 0.00 0.00 12 1007.8
20260831224542 93 158 4.0 9.0 0.00 0.00 0.00 11 1008.0
20260831224042 92 177 5.0 9.0 0.00 0.00 0.00 10 1008.0
20260831223544 92 156 4.0 8.0 0.00 0.00 0.00 9 1008.1
20260831223040 95 186 5.0 11.0 0.00 0.00 0.00 10 1008.2
20260831222540 93 171 5.0 11.0 0.00 0.00 0.00 12 1008.2
20260831222039 92 203 5.0 10.0 0.00 0.00 0.00 10 1008.3
20260831221539 91 186 5.0 10.0 0.00 0.00 0.00 10 1008.4
20260831221038 93 172 7.0 10.0 0.00 0.00 0.00 9 1008.4
20260831220538 93 196 5.0 9.0 0.00 0.00 0.00 11 1008.4
20260831220037 93 186 6.0 10.0 0.00 0.00 0.00 12 1008.5
20260831215536 95 186 6.0 10.0 0.00 0.00 0.00 10 1008.6
20260831215034 94 178 6.0 10.0 0.00 0.00 0.00 11 1008.7
20260831214534 94 191 6.0 11.0 0.00 0.00 0.00 11 1008.9
20260831214035 95 196 8.0 11.0 0.00 0.00 0.00 10 1009.0
20260831213532 95 181 7.0 10.0 0.00 0.00 0.00 11 1009.0
20260831213033 93 191 7.0 12.0 0.00 0.00 0.00 11 1009.1
20260831212530 94 196 9.0 12.0 0.00 0.00 0.00 11 1009.2
20260831212029 94 173 10.0 12.0 0.00 0.00 0.00 12 1009.3
20260831211532 94 180 8.0 11.0 0.00 0.00 0.00 12 1009.4
20260831211027 93 206 8.0 12.0 0.00 0.00 0.00 14 1009.4
20260831210525 93 186 9.0 12.0 0.00 0.00 0.00 13 1009.4
20260831210024 93 191 9.0 12.0 0.00 0.00 0.00 15 1009.6
20260831205524 93 180 9.0 12.0 0.00 0.00 0.00 14 1009.7
20260831205023 92 186 9.0 12.0 0.00 0.00 0.00 15 1009.8
20260831204523 92 178 9.0 13.0 0.00 0.00 0.00 15 1009.8
20260831204024 92 179 9.0 13.0 0.00 0.00 0.00 15 1009.8
20260831203522 93 181 9.0 12.0 0.00 0.00 0.00 15 1009.9
20260831203027 91 202 8.0 12.0 0.00 0.00 0.00 16 1010.1
20260831202519 92 186 9.0 12.0 0.00 0.00 0.00 15 1010.2
20260831202018 91 191 7.0 12.0 0.00 0.00 0.00 17 1010.4
20260831201518 91 209 9.0 12.0 0.00 0.00 0.00 17 1010.6
20260831201017 90 170 8.0 13.0 0.00 0.00 0.00 16 1010.7
20260831200516 90 186 8.0 14.0 0.00 0.00 0.00 18 1010.8
20260831200021 89 178 9.0 13.0 0.00 0.00 0.00 18 1010.8
20260831195513 89 176 10.0 13.0 0.00 0.00 0.00 18 1011.0
20260831195011 87 175 9.0 13.0 0.00 0.00 0.00 18 1011.1
20260831194511 87 182 9.0 13.0 0.00 0.00 0.00 18 1011.2
20260831194010 87 161 10.0 13.0 0.00 0.00 0.00 18 1011.3
20260831193509 87 186 9.0 13.0 0.00 0.00 0.00 19 1011.4
20260831193009 86 170 10.0 14.0 0.00 0.00 0.00 20 1011.4
20260831192506 85 196 8.0 14.0 0.00 0.00 0.00 20 1011.5
20260831192009 85 179 6.0 12.0 0.00 0.00 0.00 22 1011.7
20260831191503 82 179 6.0 11.0 0.00 0.00 0.00 24 1011.9
20260831191002 83 219 5.0 9.0 0.00 0.00 0.00 24 1012.0
20260831190502 81 191 5.0 9.0 0.00 0.00 0.00 25 1012.2
20260831190101 80 178 4.0 7.0 0.00 0.00 0.00 23 1012.3
20260831185603 76 248 1.0 6.0 0.00 0.00 0.00 32 1012.3
20260831185057 77 182 3.0 6.0 0.00 0.00 0.00 28 1012.5
20260831184600 80 186 3.0 6.0 0.00 0.00 0.00 27 1012.6
20260831184054 79 150 2.0 6.0 0.00 0.00 0.00 27 1012.7
20260831183553 78 164 3.0 6.0 0.00 0.00 0.00 28 1012.8
20260831183052 76 137 1.0 7.0 0.00 0.00 0.00 31 1012.8
20260831182555 77 135 2.0 8.0 0.00 0.00 0.00 31 1013.0
20260831182053 79 166 5.0 8.0 0.00 0.00 0.00 31 1013.1
20260831181548 77 166 3.0 7.0 0.00 0.00 0.00 34 1013.1
20260831181048 76 191 3.0 6.0 0.00 0.00 0.00 35 1013.1
20260831180545 77 196 3.0 9.0 0.00 0.00 0.00 38 1013.3
20260831180045 75 175 4.0 9.0 0.00 0.00 0.00 40 1013.3
20260831175544 73 181 3.0 6.0 0.00 0.00 0.00 42 1013.4
20260831175042 71 191 2.0 6.0 0.00 0.00 0.00 45 1013.4
20260831174541 71 167 4.0 6.0 0.00 0.00 0.00 43 1013.5
20260831174039 73 164 3.0 6.0 0.00 0.00 0.00 39 1013.6
20260831173541 73 181 4.0 7.0 0.00 0.00 0.00 40 1013.5
20260831173137 73 181 4.0 7.0 0.00 0.00 0.00 39 1013.6
20260831172534 73 186 4.0 8.0 0.00 0.00 0.00 41 1013.6
20260831172033 72 200 5.0 7.0 0.00 0.00 0.00 43 1013.7
20260831171531 71 177 4.0 6.0 0.00 0.00 0.00 45 1013.8
20260831171030 69 196 3.0 5.0 0.00 0.00 0.00 47 1013.8
20260831170529 68 196 2.0 6.0 0.00 0.00 0.00 52 1014.0
20260831170029 68 180 3.0 6.0 0.00 0.00 0.00 50 1014.0
20260831165528 68 196 3.0 5.0 0.00 0.00 0.00 50 1014.0
20260831165026 67 186 2.0 6.0 0.00 0.00 0.00 51 1014.0
20260831164526 66 44 3.0 7.0 0.00 0.00 0.00 52 1014.2
20260831164024 66 181 3.0 7.0 0.00 0.00 0.00 55 1014.2
20260831163524 65 186 3.0 6.0 0.00 0.00 0.00 54 1014.2
20260831163025 65 191 2.0 7.0 0.00 0.00 0.00 57 1014.2
20260831162523 64 180 3.0 7.0 0.00 0.00 0.00 57 1014.4
20260831162020 62 168 3.0 5.0 0.00 0.00 0.00 60 1014.4
20260831161528 62 167 2.0 5.0 0.00 0.00 0.00 59 1014.5
20260831161016 61 165 2.0 5.0 0.00 0.00 0.00 59 1014.5
20260831160516 61 162 2.0 4.0 0.00 0.00 0.00 59 1014.6
20260831160017 62 162 1.0 5.0 0.00 0.00 0.00 58 1014.6
20260831155515 61 162 1.0 5.0 0.00 0.00 0.00 58 1014.6
20260831155014 62 160 2.0 4.0 0.00 0.00 0.00 57 1014.6
20260831154513 61 154 2.0 4.0 0.00 0.00 0.00 58 1014.7
20260831154015 59 102 1.0 3.0 0.00 0.00 0.00 61 1014.7
20260831153509 59 68 0.0 2.0 0.00 0.00 0.00 59 1014.6
20260831153009 59 68 0.0 2.0 0.00 0.00 0.00 58 1014.7
20260831152509 59 68 0.0 2.0 0.00 0.00 0.00 59 1014.7
20260831152007 58 68 0.0 2.0 0.00 0.00 0.00 60 1014.7
20260831151506 57 68 0.0 2.0 0.00 0.00 0.00 62 1014.7
20260831151004 56 68 0.0 2.0 0.00 0.00 0.00 64 1014.7
20260831150503 55 68 0.0 2.0 0.00 0.00 0.00 66 1014.8
20260831150005 55 68 0.0 3.0 0.00 0.00 0.00 67 1014.7
20260831145600 54 68 1.0 3.0 0.00 0.00 0.00 69 1014.7
20260831145059 53 68 1.0 4.0 0.00 0.00 0.00 70 1014.6
20260831144604 52 67 0.0 4.0 0.00 0.00 0.00 71 1014.5
20260831144055 52 65 1.0 3.0 0.00 0.00 0.00 72 1014.6
20260831143554 51 64 0.0 4.0 0.00 0.00 0.00 72 1014.6
20260831143056 51 64 1.0 4.0 0.00 0.00 0.00 73 1014.6
20260831142552 51 47 1.0 3.0 0.00 0.00 0.00 74 1014.5
20260831142050 50 32 0.0 2.0 0.00 0.00 0.00 74 1014.5
20260831141552 50 32 0.0 2.0 0.00 0.00 0.00 74 1014.5
20260831141050 50 32 0.0 1.0 0.00 0.00 0.00 75 1014.4
20260831140549 50 32 0.0 1.0 0.00 0.00 0.00 75 1014.4
20260831140049 50 32 0.0 1.0 0.00 0.00 0.00 75 1014.4
20260831135548 50 32 0.0 1.0 0.00 0.00 0.00 75 1014.5
20260831135048 50 32 0.0 1.0 0.00 0.00 0.00 75 1014.4
20260831134547 50 32 0.0 2.0 0.00 0.00 0.00 75 1014.4
20260831134045 50 32 0.0 2.0 0.00 0.00 0.00 75 1014.4
20260831133545 50 40 0.0 2.0 0.00 0.00 0.00 74 1014.4
20260831133046 50 63 0.0 2.0 0.00 0.00 0.00 74 1014.4
20260831132545 50 63 0.0 1.0 0.00 0.00 0.00 74 1014.4
20260831132045 50 63 0.0 2.0 0.00 0.00 0.00 74 1014.4
20260831131550 50 63 0.0 2.0 0.00 0.00 0.00 74 1014.3
20260831131046 50 63 0.0 1.0 0.00 0.00 0.00 74 1014.4
20260831130544 50 63 0.0 1.0 0.00 0.00 0.00 74 1014.3
20260831130045 50 63 0.0 1.0 0.00 0.00 0.00 74 1014.3
20260831125544 50 63 0.0 1.0 0.00 0.00 0.00 74 1014.3
20260831125044 51 63 0.0 1.0 0.00 0.00 0.00 73 1014.4
20260831124542 51 63 0.0 2.0 0.00 0.00 0.00 73 1014.3
20260831124041 51 63 0.0 2.0 0.00 0.00 0.00 73 1014.3
20260831123541 51 63 0.0 2.0 0.00 0.00 0.00 73 1014.3
20260831123041 51 63 1.0 3.0 0.00 0.00 0.00 73 1014.3
20260831122541 51 63 0.0 4.0 0.00 0.00 0.00 73 1014.3
20260831122043 51 50 0.0 5.0 0.00 0.00 0.00 73 1014.2
20260831121540 51 56 1.0 5.0 0.00 0.00 0.00 73 1014.2
20260831121040 51 57 0.0 2.0 0.00 0.00 0.00 73 1014.2
20260831120540 51 57 0.0 2.0 0.00 0.00 0.00 73 1014.2
20260831120039 51 58 0.0 2.0 0.00 0.00 0.00 73 1014.2
20260831115538 51 58 0.0 3.0 0.00 0.00 0.00 72 1014.2
20260831115037 52 59 0.0 3.0 0.00 0.00 0.00 72 1014.2
20260831114537 52 59 0.0 4.0 0.00 0.00 0.00 72 1014.2
20260831114036 52 62 0.0 4.0 0.00 0.00 0.00 72 1014.2
20260831113535 52 63 1.0 3.0 0.00 0.00 0.00 72 1014.2
20260831113035 52 63 0.0 3.0 0.00 0.00 0.00 72 1014.2
20260831112535 52 63 0.0 3.0 0.00 0.00 0.00 72 1014.2
20260831112034 52 63 0.0 3.0 0.00 0.00 0.00 72 1014.2
20260831111534 52 63 0.0 3.0 0.00 0.00 0.00 71 1014.2
20260831111033 52 63 0.0 4.0 0.00 0.00 0.00 71 1014.2
20260831110533 52 48 0.0 5.0 0.00 0.00 0.00 71 1014.3
20260831110154 52 58 1.0 8.0 0.00 0.00 0.00 71 1014.2
20260831105533 52 48 1.0 8.0 0.00 0.00 0.00 72 1014.2
20260831105033 52 62 1.0 7.0 0.00 0.00 0.00 72 1014.2
20260831104538 52 57 0.0 2.0 0.00 0.00 0.00 72 1014.2
20260831104032 52 54 0.0 2.0 0.00 0.00 0.00 72 1014.2
20260831103532 52 52 0.0 1.0 0.00 0.00 0.00 72 1014.1
20260831103030 52 52 0.0 1.0 0.00 0.00 0.00 72 1014.1
20260831102530 52 52 0.0 1.0 0.00 0.00 0.00 72 1014.1
20260831102030 52 52 0.0 1.0 0.00 0.00 0.00 72 1014.1
20260831101530 52 52 0.0 2.0 0.00 0.00 0.00 72 1014.2
20260831101034 52 52 0.0 3.0 0.00 0.00 0.00 72 1014.2
20260831100528 52 57 0.0 3.0 0.00 0.00 0.00 72 1014.2
20260831100027 52 62 0.0 4.0 0.00 0.00 0.00 72 1014.3
20260831095527 52 63 0.0 4.0 0.00 0.00 0.00 73 1014.3
20260831095026 52 17 0.0 1.0 0.00 0.00 0.00 72 1014.3
20260831094526 52 17 0.0 2.0 0.00 0.00 0.00 72 1014.3
20260831094025 52 17 0.0 2.0 0.00 0.00 0.00 72 1014.4
20260831093525 53 11 0.0 2.0 0.00 0.00 0.00 72 1014.5
20260831093023 53 11 0.0 2.0 0.00 0.00 0.00 72 1014.5
20260831092523 53 11 0.0 2.0 0.00 0.00 0.00 72 1014.6
20260831092021 53 11 0.0 2.0 0.00 0.00 0.00 71 1014.5
20260831091520 53 11 0.0 1.0 0.00 0.00 0.00 71 1014.5
20260831091019 53 11 0.0 1.0 0.00 0.00 0.00 71 1014.6
20260831090519 54 11 0.0 1.0 0.00 0.00 0.00 70 1014.5
20260831090019 54 11 0.0 1.0 0.00 0.00 0.00 70 1014.6
20260831085519 54 11 0.0 2.0 0.00 0.00 0.00 70 1014.6
20260831085017 54 11 0.0 2.0 0.00 0.00 0.00 70 1014.6
20260831084517 54 11 1.0 2.0 0.00 0.00 0.00 71 1014.7
20260831084016 54 11 1.0 2.0 0.00 0.00 0.00 70 1014.7
20260831083519 54 11 1.0 2.0 0.00 0.00 0.00 70 1014.7
20260831083031 54 11 1.0 2.0 0.00 0.00 0.00 70 1014.7
20260831082514 54 11 1.0 2.0 0.00 0.00 0.00 69 1014.7
20260831082013 54 11 1.0 2.0 0.00 0.00 0.00 68 1014.7
20260831081512 55 11 0.0 2.0 0.00 0.00 0.00 68 1014.8
20260831081011 55 11 1.0 2.0 0.00 0.00 0.00 68 1014.9
20260831080510 55 11 1.0 2.0 0.00 0.00 0.00 68 1014.9
20260831080010 55 11 1.0 2.0 0.00 0.00 0.00 67 1014.8
20260831075509 55 11 0.0 2.0 0.00 0.00 0.00 67 1014.8
20260831075009 55 11 1.0 2.0 0.00 0.00 0.00 67 1014.9
20260831074509 55 11 1.0 2.0 0.00 0.00 0.00 67 1014.8
20260831074008 55 11 1.0 2.0 0.00 0.00 0.00 67 1014.9
20260831073508 55 11 1.0 2.0 0.00 0.00 0.00 67 1014.9
20260831073013 56 11 1.0 2.0 0.00 0.00 0.00 66 1014.9
20260831072506 56 11 1.0 2.0 0.00 0.00 0.00 66 1014.9
20260831072004 56 11 0.0 2.0 0.00 0.00 0.00 66 1014.9
20260831071503 56 11 0.0 2.0 0.00 0.00 0.00 65 1014.9
20260831071002 57 11 1.0 3.0 0.00 0.00 0.00 64 1014.9
20260831070502 57 10 0.0 5.0 0.00 0.00 0.00 63 1014.9
20260831070100 58 357 2.0 5.0 0.00 0.00 0.00 62 1014.9
20260831065600 58 2 1.0 4.0 0.00 0.00 0.00 63 1014.9
20260831065100 57 48 0.0 2.0 0.00 0.00 0.00 64 1014.9
20260831064600 57 48 0.0 2.0 0.00 0.00 0.00 64 1014.9
20260831064058 57 48 0.0 2.0 0.00 0.00 0.00 63 1014.8
20260831063559 58 48 0.0 2.0 0.00 0.00 0.00 63 1014.9
20260831063058 58 48 0.0 2.0 0.00 0.00 0.00 62 1014.9
20260831062558 58 48 1.0 2.0 0.00 0.00 0.00 62 1014.9
20260831062058 58 48 1.0 4.0 0.00 0.00 0.00 61 1014.9
20260831061558 59 2 0.0 5.0 0.00 0.00 0.00 61 1015.0
20260831061058 59 2 0.0 3.0 0.00 0.00 0.00 61 1015.0
20260831060559 59 23 2.0 3.0 0.00 0.00 0.00 59 1015.0
20260831060108 59 16 0.0 3.0 0.00 0.00 0.00 60 1015.0
20260831055603 59 10 1.0 2.0 0.00 0.00 0.00 60 1014.9
20260831055058 60 10 0.0 1.0 0.00 0.00 0.00 60 1015.0
20260831054558 60 10 0.0 1.0 0.00 0.00 0.00 59 1015.0
20260831054057 59 10 0.0 1.0 0.00 0.00 0.00 60 1015.0
20260831053557 59 10 0.0 2.0 0.00 0.00 0.00 60 1015.0
20260831053059 60 10 0.0 2.0 0.00 0.00 0.00 59 1015.1
20260831052557 60 12 0.0 2.0 0.00 0.00 0.00 58 1015.1
20260831052056 60 12 0.0 4.0 0.00 0.00 0.00 58 1015.1
20260831051557 60 12 0.0 4.0 0.00 0.00 0.00 58 1015.1
20260831051056 60 360 1.0 4.0 0.00 0.00 0.00 58 1015.0
20260831050556 61 242 0.0 6.0 0.00 0.00 0.00 56 1015.0
20260831050056 61 242 1.0 10.0 0.00 0.00 0.00 57 1015.0
20260831045556 61 339 0.0 2.0 0.00 0.00 0.00 57 1015.1
20260831045056 61 339 0.0 3.0 0.00 0.00 0.00 55 1015.0
20260831044604 61 331 0.0 5.0 0.00 0.00 0.00 56 1015.0
20260831044056 61 279 0.0 3.0 0.00 0.00 0.00 55 1015.0
20260831043556 62 265 0.0 8.0 0.00 0.00 0.00 54 1015.0
20260831043055 62 191 0.0 8.0 0.00 0.00 0.00 54 1015.0
20260831042555 63 250 1.0 6.0 0.00 0.00 0.00 52 1015.0
20260831042059 64 253 0.0 6.0 0.00 0.00 0.00 51 1015.0
20260831041644 64 334 0.0 14.0 0.00 0.00 0.00 51 1014.9
20260831041055 65 191 4.0 14.0 0.00 0.00 0.00 51 1014.9
20260831040555 65 260 2.0 7.0 0.00 0.00 0.00 51 1014.9
20260831040058 64 191 1.0 3.0 0.00 0.00 0.00 50 1015.0
20260831035555 64 352 0.0 4.0 0.00 0.00 0.00 49 1014.8
20260831035054 66 352 0.0 4.0 0.00 0.00 0.00 46 1014.8
20260831034554 65 191 0.0 4.0 0.00 0.00 0.00 47 1014.7